User: anonymous   Login
Location: Unspecified
(0.0000°N, 0.0000°E)
Time: 00:49:04
(UTC+00:00)
Language:

PROBA 2 - Orbit

View from above orbital plane
View from above orbital plane
View from above satellite
View from above satellite

Ground track
Ground track

The orbit data is extracted from the following two-line orbital elements,

1 36037U 09059B   17295.54466743  .00000005  00000-0  12076-4 0  9990
2 36037  98.2479 126.9656 0012440 307.8443  52.1626 14.53015163422622
Epoch (UTC): 22 October 2017 13:04:19
Eccentricity: 0.0012440
inclination: 98.2479°
perigee height: 707 km
apogee height: 724 km
right ascension of ascending node: 126.9656°
argument of perigee: 307.8443°
revolutions per day: 14.53015163
mean anomaly at epoch: 52.1626°
orbit number at epoch: 42262

The dashed part of the orbit path shows where the satellite is in the earth's shadow,  

DLR